カタログに戻る

COSMOS 1723

運用中軍事LEO
NORAD 16456·PAYLOAD·🇷🇺 Russia

打ち上げ Jan 9, 1986 から Plesetsk Cosmodrome

Loading…

次のパス (今後24時間)

TLE

最新Source: Space-Track

元期: Sep 14, 2026, 14:10 UTC

1 16456U 86002H   26257.59096410  .00000002  00000-0  11367-3 0  9997
2 16456  73.9902 312.5406 0053179 279.3039 249.8346 12.55806453864860

AllMySatでCOSMOS 1723をリアルタイム追跡

Download on the App Store